Location: Shenandoah County Park
(38.9356°N, 78.4524°W)
Time: 18:47:06
(UTC-04:00)

ESTCUBE 1 - Visible Passes

Search period start: 31 March 2023 00:00
Search period end: 10 April 2023 00:00
Orbit: 642 x 654 km, 97.9° (Epoch: 31 March)

Date Brightness Start Highest point End Pass type
(mag) Time Alt. Az. Time Alt. Az. Time Alt. Az.
31 Mar ? 22:57:14 13° N 22:57:14 13° N 22:57:48 10° N visible
01 Apr ? 23:23:28 13° NNW 23:23:28 13° NNW 23:23:55 10° NNW visible
02 Apr ? 22:11:56 11° NNE 22:11:56 11° NNE 22:12:14 10° NNE visible
02 Apr ? 23:49:41 10° NNW 23:49:41 10° NNW 23:49:42 10° NNW visible
03 Apr ? 22:38:08 15° NNE 22:38:08 15° NNE 22:38:57 10° N visible
04 Apr ? 23:04:20 16° N 23:04:20 16° N 23:05:15 10° N visible
05 Apr ? 23:30:31 15° NNW 23:30:31 15° NNW 23:31:15 10° NNW visible
06 Apr ? 22:18:58 14° NNE 22:18:58 14° NNE 22:19:50 10° NNE visible
06 Apr ? 23:56:42 11° NW 23:56:42 11° NW 23:56:54 10° NNW visible
07 Apr ? 22:45:08 18° N 22:45:08 18° N 22:46:23 10° N visible
08 Apr ? 23:11:19 19° N 23:11:19 19° N 23:12:33 10° N visible
09 Apr ? 21:59:44 12° NE 21:59:44 12° NE 22:00:17 10° NNE visible
09 Apr ? 23:37:29 16° NNW 23:37:29 16° NNW 23:38:26 10° NNW visible
